Satellite: TACSAT-3
Catalog number: 35001
Epoch time:      10119.39617662
Element set:     274
Inclination:      040.4543 deg
RA of node:       147.1068 deg
Eccentricity:    0.0022125
Arg of perigee:   356.5303 deg
Mean anomaly:     003.5352 deg
Mean motion:   15.41340632 rev/day
Decay rate:      4.401e-05 rev/day^2
Epoch rev:            5310
Checksum:              235

Satellite: PHARMSAT
Catalog number: 35002
Epoch time:      10119.23770348
Element set:     259
Inclination:      040.4703 deg
RA of node:       146.2380 deg
Eccentricity:    0.0024651
Arg of perigee:   359.9945 deg
Mean anomaly:     000.0863 deg
Mean motion:   15.41909592 rev/day
Decay rate:      4.194e-05 rev/day^2
Epoch rev:            5309
Checksum:              281

Satellite: HAWKSAT1
Catalog number: 35003
Epoch time:      10119.23865335
Element set:     276
Inclination:      040.4620 deg
RA of node:       142.3723 deg
Eccentricity:    0.0022014
Arg of perigee:   011.1038 deg
Mean anomaly:     349.0263 deg
Mean motion:   15.44541126 rev/day
Decay rate:      8.667e-05 rev/day^2
Epoch rev:            5314
Checksum:              243

Satellite: CP6
Catalog number: 35004
Epoch time:      10119.19498446
Element set:     269
Inclination:      040.4600 deg
RA of node:       142.0476 deg
Eccentricity:    0.0021280
Arg of perigee:   012.4753 deg
Mean anomaly:     347.6585 deg
Mean motion:   15.45202223 rev/day
Decay rate:     1.0202e-04 rev/day^2
Epoch rev:            5313
Checksum:              253

Satellite: AEROCUB3
Catalog number: 35005
Epoch time:      10119.19139136
Element set:     294
Inclination:      040.4741 deg
RA of node:       141.4714 deg
Eccentricity:    0.0017415
Arg of perigee:   020.1900 deg
Mean anomaly:     339.9586 deg
Mean motion:   15.48430985 rev/day
Decay rate:     2.8147e-04 rev/day^2
Epoch rev:            5314
Checksum:              280

Satellite: DRAGNSAT
Catalog number: 35690
Epoch time:      10076.22711312
Element set:     316
Inclination:      051.6170 deg
RA of node:       315.4586 deg
Eccentricity:    0.0004999
Arg of perigee:   310.9891 deg
Mean anomaly:     057.3269 deg
Mean motion:   16.42150010 rev/day
Decay rate:   5.715194e-02 rev/day^2
Epoch rev:            3656
Checksum:              289

Satellite: POLLUX
Catalog number: 35693
Epoch time:      10087.99866888
Element set:     352
Inclination:      051.6099 deg
RA of node:       254.5746 deg
Eccentricity:    0.0006270
Arg of perigee:   294.4866 deg
Mean anomaly:     097.5899 deg
Mean motion:   16.52338462 rev/day
Decay rate:  2.3496735e-01 rev/day^2
Epoch rev:            3839
Checksum:              384

Satellite: CASTOR
Catalog number: 35694
Epoch time:      10119.89673469
Element set:     329
Inclination:      051.6361 deg
RA of node:       097.4095 deg
Eccentricity:    0.0005339
Arg of perigee:   039.4492 deg
Mean anomaly:     320.6938 deg
Mean motion:   15.95407131 rev/day
Decay rate:     6.1264e-04 rev/day^2
Epoch rev:            4333
Checksum:              318

Satellite: METEOR-M
Catalog number: 35865
Epoch time:      10119.71857205
Element set:     249
Inclination:      098.7629 deg
RA of node:       173.8542 deg
Eccentricity:    0.0002702
Arg of perigee:   124.6839 deg
Mean anomaly:     235.4546 deg
Mean motion:   14.21829871 rev/day
Decay rate:       1.76e-06 rev/day^2
Epoch rev:            3183
Checksum:              315

Satellite: RS-38
Catalog number: 35869
Epoch time:      10119.69524388
Element set:     254
Inclination:      098.7606 deg
RA of node:       173.8580 deg
Eccentricity:    0.0004988
Arg of perigee:   136.9294 deg
Mean anomaly:     223.2232 deg
Mean motion:   14.21980425 rev/day
Decay rate:       1.77e-06 rev/day^2
Epoch rev:            3183
Checksum:              333

/EX




More information about the Keps mailing list